[[{"header":{"parameterUnit":"m.s-1","parameterCategory":1,"la1":30.2991,"la2":30.254,"lo1":-89.0895,"lo2":-89.0444,"dy":0.0017,"dx":0.0017,"nx":28,"ny":28,"refTime":"2025-07-09T03:00:00:Z","depth":0,"parameterNumber":2,"parameterNumberName":"U-component_of_WINDS"},"data":[0,0,0,0,0,0,0,0,0,0,0,0,0,0,0,0,0,0,0,0,0,0,0,0,0,0,0,0,0,0,0,0,0,0,0,0,0,0,0,0,0,0,0,0,0,0,0,0,0,0,0,0,0,0,0,0,0,0,3.5989,3.599,0,3.6121,3.6122,3.6124,3.6084,3.6081,3.6078,3.6076,3.6212,3.6218,3.6224,0,0,0,0,0,0,0,0,0,0,0,0,0,3.5701,3.5706,3.5989,3.5991,3.5992,3.6121,3.6123,3.6124,3.6085,3.6081,3.6078,3.6075,3.621,3.6217,3.6225,0,0,0,0,0,0,0,0,0,0,0,0,0,3.5829,3.5708,3.5989,3.5988,3.5989,3.612,3.6123,3.6125,3.6085,3.6081,3.6077,3.6073,3.6208,3.6217,3.6226,3.6366,0,0,3.6254,3.6258,0,0,0,0,0,0,0,0,3.5822,3.5839,3.5986,3.5988,3.599,3.6082,3.6071,3.6206,3.6086,3.6049,3.6076,3.6071,3.6172,3.6184,3.6218,3.6372,3.6378,3.6255,3.6261,3.6265,3.6267,0,0,0,0,0,0,0,3.5813,3.5834,3.6041,3.5988,3.5991,3.598,3.5994,3.6096,3.6132,3.6052,3.6049,3.6065,3.6172,3.6209,3.6221,3.638,3.6255,3.6263,3.6269,3.6272,3.6653,3.6657,0,0,0,0,0,0,3.5803,3.5826,3.6037,3.6045,3.5894,3.5989,3.6004,3.6056,3.6131,3.6138,3.6069,3.6063,3.6195,3.621,3.6225,3.6392,3.6265,3.6273,3.6279,3.6648,3.6654,3.6659,0,0,0,0,0,0,3.5797,3.5822,3.6032,3.5935,3.5961,3.5998,3.6057,3.6061,3.6098,3.6144,3.615,3.61,3.6193,3.6212,3.633,3.6396,3.6277,3.6286,3.6643,3.665,3.6656,3.6727,0,0,0,0,0,0,3.5789,3.582,3.5874,3.5937,3.5966,3.6135,3.6061,3.6067,3.6114,3.6108,3.6174,3.6182,3.6191,3.6317,3.634,3.6407,3.6293,3.6637,3.6646,3.6654,3.6719,3.6735,3.675,0,0,0,0,0,3.5779,3.589,3.5877,3.5903,3.6035,3.6139,3.6156,3.6164,3.612,3.6174,3.6202,3.6179,3.6386,3.6329,3.6355,3.6425,3.6633,3.6643,3.6653,3.6712,3.6732,3.6749,0,0,0,0,0,0,3.5836,3.5898,3.5885,3.602,3.6074,3.6132,3.6201,3.6186,3.6254,3.6245,3.6253,3.6268,3.6388,3.6419,3.6355,3.6563,3.6503,3.6518,3.6539,3.6558,3.6573,3.6562,3.6301,0,0,0,0,0,3.5864,3.5943,3.5994,3.6108,3.6136,3.6164,3.6209,3.6211,3.6267,3.629,3.6328,3.6384,3.6461,3.6511,3.6585,3.6724,3.6736,3.6785,3.68,3.6812,3.6825,3.6897,3.6918,3.6692,3.6692,3.6692,0,0,3.5923,3.5967,3.6017,3.612,3.6163,3.6243,3.6183,3.6273,3.6332,3.6304,3.6417,3.6446,3.6509,3.6637,3.6695,3.6666,3.6891,3.6825,3.6835,3.6841,3.691,3.6931,3.695,3.6699,3.6698,3.6697,0,0,3.6071,3.6114,3.6212,3.6255,3.6319,3.6337,3.636,3.642,3.6438,3.6551,3.6531,3.6602,3.6735,3.678,3.682,3.6982,3.6963,3.7007,3.7085,3.7156,3.7173,3.7189,3.7244,3.7264,3.702,3.702,3.702,0,3.6137,3.6258,3.6265,3.6354,3.6399,3.6377,3.6475,3.6517,3.6602,3.6633,3.6599,3.6764,3.6805,3.6941,3.698,3.7015,3.704,3.6998,3.717,3.7186,3.7201,3.7254,3.7275,3.7024,3.7024,3.7023,3.7023,0,3.6334,3.6418,3.649,3.6571,3.6624,3.6718,3.6737,3.6791,3.6787,3.6807,3.6921,3.697,3.7051,3.7084,3.7082,3.7219,3.7199,3.7168,3.7107,3.7227,3.7276,3.7297,3.7031,3.7029,3.7028,3.7027,0,0,3.6523,3.6604,3.663,3.6665,3.6733,3.6798,3.689,3.6968,3.7012,3.7072,3.7147,3.726,3.723,3.7276,3.7279,3.7341,3.7462,3.7302,3.7303,3.7327,3.7613,3.7634,3.7657,3.745,3.7454,3.7457,3.7607,0,3.6675,3.6835,3.6842,3.6989,3.7065,3.7043,3.7123,3.7172,3.7194,3.7261,3.7285,3.7363,3.732,3.7347,3.7408,3.7435,3.7519,3.7425,3.7519,3.7522,3.7501,3.7683,3.7706,3.7845,3.7626,3.763,3.7632,0,3.6874,3.6937,3.709,3.7144,3.7176,3.7248,3.7318,3.7384,3.7439,3.745,3.75,3.7493,3.7585,3.7522,3.7648,3.7583,3.7623,3.7642,3.7647,3.7654,3.7583,3.7693,3.789,3.7909,3.7663,3.7661,3.7658,0,3.6992,3.7116,3.7222,3.7254,3.732,3.737,3.74,3.7451,3.7497,3.7559,3.7588,3.7661,3.7701,3.7757,3.7769,3.7722,3.7894,3.7833,3.7904,3.7904,3.794,3.7937,3.8143,3.797,3.7969,3.7969,3.7968,0,3.7159,3.7253,3.7276,3.7341,3.7445,3.7452,3.7554,3.7581,3.7626,3.7695,3.7682,3.7747,3.7761,3.7828,3.7839,3.794,3.7959,3.7969,3.797,3.7969,3.7967,3.7993,3.7983,3.7974,3.7973,3.7972,3.7971,0,3.7309,3.7328,3.7442,3.7495,3.751,3.7584,3.7629,3.7691,3.771,3.7797,3.7818,3.7848,3.7927,3.7945,3.804,3.8046,3.8165,3.8159,3.8146,3.8145,3.8214,3.8206,3.8441,3.8471,3.8281,3.8283,3.8284,0,3.7413,3.7484,3.7544,3.7589,3.762,3.7694,3.7739,3.7749,3.7797,3.7863,3.7917,3.7994,3.8056,3.8182,3.8212,3.8283,3.8277,3.8354,3.8287,3.8282,3.8274,3.8269,3.8274,3.8366,3.8368,3.837,3.8371,0,3.7596,3.7601,3.7667,3.7736,3.7791,3.7846,3.7899,3.7936,3.7952,3.8007,3.8086,3.8134,3.8229,3.8304,3.8375,3.8406,3.8391,3.8392,3.8412,3.841,3.8399,3.8402,3.8178,3.8387,3.8385,3.8384,3.8383,3.8382,3.7724,3.7784,3.7835,3.7908,3.7948,3.7997,3.8057,3.8082,3.8148,3.8225,3.8227,3.8313,3.8364,3.8457,3.8492,3.8558,3.8534,3.8564,3.8571,3.8577,3.8582,3.839,3.8572,3.8572,3.8571,3.8571,3.8571,0,3.7903,3.7933,3.8001,3.8073,3.8131,3.8111,3.8167,3.8216,3.8292,3.834,3.8401,3.849,3.8563,3.8598,3.867,3.8716,3.8711,3.8734,3.873,3.8736,3.8601,3.8575,3.8737,3.8737,3.8737,3.8737,3.8737,3.8737,3.8002,3.8103,3.8114,3.8233,3.8264,3.8347,3.838,3.8424,3.8462,3.8563,3.8623,3.8644,3.8687,3.8761,3.8826,3.8834,3.886,3.8886,3.8891,3.8764,3.8746,3.873,3.8706,3.8893,3.8893,3.9021,3.9022,3.9023]},{"header":{"parameterUnit":"m.s-1","parameterCategory":1,"la1":30.2991,"la2":30.254,"lo1":-89.0895,"lo2":-89.0444,"dy":0.0017,"dx":0.0017,"nx":28,"ny":28,"refTime":"2025-07-09T03:00:00:Z","depth":0,"parameterNumber":3,"parameterNumberName":"V-component_of_WINDS"},"data":[0,0,0,0,0,0,0,0,0,0,0,0,0,0,0,0,0,0,0,0,0,0,0,0,0,0,0,0,0,0,0,0,0,0,0,0,0,0,0,0,0,0,0,0,0,0,0,0,0,0,0,0,0,0,0,0,0,0,1.3394,1.3394,0,1.3407,1.3407,1.3407,1.3349,1.3347,1.3345,1.3344,1.3359,1.3361,1.3363,0,0,0,0,0,0,0,0,0,0,0,0,0,1.3321,1.3322,1.3394,1.3394,1.3394,1.3407,1.3407,1.3407,1.3349,1.3347,1.3345,1.3343,1.3358,1.3361,1.3363,0,0,0,0,0,0,0,0,0,0,0,0,0,1.3345,1.3323,1.3394,1.3367,1.3364,1.3407,1.3407,1.3407,1.3349,1.3347,1.3344,1.3342,1.3358,1.3361,1.3363,1.3433,0,0,1.3373,1.3374,0,0,0,0,0,0,0,0,1.3344,1.3348,1.3371,1.3369,1.3366,1.3373,1.3386,1.3416,1.335,1.3355,1.3344,1.3341,1.3366,1.3368,1.3376,1.3434,1.3435,1.3373,1.3375,1.3376,1.3377,0,0,0,0,0,0,0,1.3342,1.3347,1.3399,1.3371,1.3368,1.3354,1.3355,1.3392,1.3375,1.3355,1.335,1.3352,1.3364,1.3374,1.3376,1.3435,1.3373,1.3376,1.3377,1.3379,1.3549,1.3552,0,0,0,0,0,0,1.3344,1.3346,1.3399,1.3399,1.3348,1.3358,1.3358,1.3374,1.3374,1.3372,1.3355,1.335,1.337,1.3373,1.3377,1.3458,1.3376,1.3379,1.3381,1.3546,1.355,1.3553,0,0,0,0,0,0,1.3342,1.3349,1.3398,1.3371,1.3377,1.3362,1.3379,1.3375,1.3384,1.3374,1.3371,1.3367,1.3368,1.3372,1.3419,1.3457,1.338,1.3383,1.3543,1.3547,1.3551,1.3621,0,0,0,0,0,0,1.334,1.3349,1.3375,1.3372,1.3378,1.344,1.3382,1.3377,1.3389,1.3383,1.3385,1.3383,1.3366,1.3415,1.3422,1.346,1.3385,1.354,1.3545,1.355,1.3615,1.3627,1.3637,0,0,0,0,0,1.3338,1.3395,1.3377,1.3383,1.3411,1.3443,1.3446,1.3425,1.3393,1.3419,1.3412,1.3383,1.3452,1.342,1.3428,1.3467,1.3537,1.3544,1.355,1.361,1.3624,1.3636,0,0,0,0,0,0,1.3403,1.3394,1.3374,1.3431,1.3438,1.3433,1.3465,1.3441,1.3457,1.3451,1.3424,1.3425,1.3477,1.3476,1.3441,1.3534,1.3489,1.3497,1.3532,1.3546,1.3557,1.3556,1.3388,0,0,0,0,0,1.3424,1.3451,1.3441,1.3493,1.3497,1.3481,1.3494,1.3477,1.3483,1.3486,1.3483,1.3491,1.3514,1.353,1.3551,1.3614,1.3614,1.3645,1.3656,1.3665,1.3672,1.3705,1.3719,1.3573,1.3573,1.3573,0,0,1.3468,1.3466,1.3485,1.3506,1.3509,1.3537,1.3484,1.3516,1.3537,1.3491,1.3535,1.3533,1.354,1.3595,1.3619,1.3596,1.3712,1.3673,1.368,1.3683,1.3713,1.3727,1.3739,1.3577,1.3576,1.3576,0,0,1.3563,1.3564,1.3607,1.361,1.3616,1.3604,1.3614,1.3612,1.3609,1.3652,1.3618,1.3642,1.3683,1.3689,1.3698,1.3793,1.3766,1.38,1.3857,1.389,1.3901,1.3912,1.3945,1.3958,1.3808,1.3808,1.3808,0,1.3617,1.3657,1.3632,1.3666,1.3676,1.3635,1.3678,1.3683,1.3696,1.3704,1.3678,1.3727,1.3729,1.3785,1.3808,1.3816,1.3827,1.38,1.3902,1.3912,1.3921,1.3953,1.3965,1.3812,1.3811,1.3811,1.3811,0,1.3723,1.3752,1.3786,1.3797,1.3811,1.385,1.3831,1.3848,1.3829,1.382,1.3864,1.3865,1.3885,1.3896,1.3879,1.395,1.3935,1.3906,1.386,1.3939,1.3969,1.3981,1.3818,1.3816,1.3815,1.3814,0,0,1.386,1.3856,1.3869,1.3873,1.3875,1.3897,1.3934,1.3952,1.3967,1.3977,1.4007,1.4041,1.4014,1.4023,1.4006,1.4034,1.4109,1.4001,1.4001,1.4021,1.4187,1.4209,1.4224,1.4091,1.4093,1.4095,1.4186,0,1.3953,1.4014,1.3992,1.4055,1.4081,1.4041,1.4073,1.4078,1.407,1.4091,1.4083,1.4108,1.407,1.4075,1.4102,1.4095,1.4142,1.4088,1.4119,1.4121,1.4119,1.4239,1.4263,1.4349,1.4198,1.4199,1.4201,0,1.4069,1.4081,1.4147,1.4143,1.4153,1.4182,1.4197,1.4217,1.4222,1.4214,1.4224,1.42,1.4236,1.419,1.4239,1.4202,1.4213,1.4212,1.4215,1.4217,1.4166,1.4245,1.4376,1.4389,1.4219,1.4217,1.4216,0,1.4162,1.4195,1.4238,1.4243,1.4241,1.4262,1.4262,1.4263,1.4275,1.4288,1.4296,1.4313,1.4323,1.4337,1.4318,1.4286,1.437,1.4322,1.4365,1.4365,1.4385,1.4384,1.4519,1.4392,1.4392,1.4391,1.4391,0,1.4267,1.4309,1.428,1.4307,1.4352,1.4326,1.4372,1.4367,1.4369,1.4394,1.4361,1.4386,1.4359,1.4382,1.4367,1.441,1.4415,1.441,1.4405,1.4413,1.4413,1.442,1.4414,1.4395,1.4394,1.4393,1.4393,0,1.4379,1.4361,1.4406,1.4399,1.4398,1.4432,1.4426,1.445,1.444,1.4472,1.4479,1.4463,1.4487,1.4469,1.4494,1.4484,1.454,1.4527,1.4538,1.4535,1.4579,1.4575,1.4724,1.4742,1.4603,1.4604,1.4605,0,1.4447,1.4478,1.4474,1.4488,1.449,1.4513,1.4525,1.45,1.4514,1.452,1.4544,1.4565,1.4581,1.4622,1.4613,1.4631,1.4619,1.4669,1.4621,1.4627,1.4619,1.4618,1.4621,1.4679,1.4681,1.4682,1.4683,0,1.4571,1.456,1.4578,1.4593,1.4608,1.4618,1.4626,1.464,1.4615,1.4632,1.4656,1.4668,1.4692,1.4713,1.4728,1.4728,1.4702,1.4698,1.4709,1.4717,1.4722,1.472,1.4565,1.4695,1.4694,1.4693,1.4693,1.4692,1.4663,1.4688,1.4689,1.471,1.4713,1.4721,1.4743,1.4735,1.4754,1.4771,1.4756,1.4784,1.4787,1.4804,1.4807,1.483,1.4809,1.4825,1.4829,1.4833,1.4839,1.4719,1.4832,1.4832,1.4831,1.4831,1.4831,0,1.4784,1.4782,1.4802,1.4813,1.483,1.4802,1.481,1.4825,1.4851,1.4855,1.4871,1.4898,1.4918,1.491,1.4928,1.4948,1.4936,1.4953,1.4952,1.4952,1.4857,1.4845,1.4962,1.4962,1.4962,1.4962,1.4962,1.4962,1.4849,1.489,1.488,1.4922,1.492,1.4947,1.4953,1.4961,1.4964,1.4995,1.5012,1.5006,1.5006,1.5023,1.5041,1.5038,1.5046,1.5068,1.5061,1.4972,1.4959,1.4947,1.4936,1.507,1.507,1.5154,1.5155,1.5155]}]]